Year,Month,Day,Hour,Minute,Value (Times are PST for insolation in W/m^2)
2010,06,08,00,00,0.00
2010,06,08,00,01,0.00
2010,06,08,00,05,0.00
2010,06,08,00,06,0.00
2010,06,08,00,07,0.00
2010,06,08,00,08,0.00
2010,06,08,00,09,0.00
2010,06,08,00,10,0.00
2010,06,08,00,11,0.00
2010,06,08,00,12,0.00
2010,06,08,00,13,0.00
2010,06,08,00,14,0.00
2010,06,08,00,15,0.00
2010,06,08,00,16,0.00
2010,06,08,00,17,0.00
2010,06,08,00,18,0.00
2010,06,08,00,19,0.00
2010,06,08,00,20,0.00
2010,06,08,00,21,0.00
2010,06,08,00,22,0.00
2010,06,08,00,23,0.00
2010,06,08,00,24,0.00
2010,06,08,00,25,0.00
2010,06,08,00,26,0.00
2010,06,08,00,27,0.00
2010,06,08,00,28,0.00
2010,06,08,00,29,0.00
2010,06,08,00,30,0.00
2010,06,08,00,31,0.00
2010,06,08,00,32,0.00
2010,06,08,00,33,0.00
2010,06,08,00,34,0.00
2010,06,08,00,35,0.00
2010,06,08,00,36,0.00
2010,06,08,00,37,0.00
2010,06,08,00,38,0.00
2010,06,08,00,39,0.00
2010,06,08,00,40,0.00
2010,06,08,00,41,0.00
2010,06,08,00,42,0.00
2010,06,08,00,43,0.00
2010,06,08,00,44,0.00
2010,06,08,00,45,0.00
2010,06,08,00,46,0.00
2010,06,08,00,47,0.00
2010,06,08,00,48,0.00
2010,06,08,00,49,0.00
2010,06,08,00,50,0.00
2010,06,08,00,51,0.00
2010,06,08,00,52,0.00
2010,06,08,00,53,0.00
2010,06,08,00,54,0.00
2010,06,08,00,55,0.00
2010,06,08,00,56,0.00
2010,06,08,00,57,0.00
2010,06,08,00,58,0.00
2010,06,08,00,59,0.00
2010,06,08,01,00,0.00
2010,06,08,01,01,0.00
2010,06,08,01,02,0.00
2010,06,08,01,03,0.00
2010,06,08,01,04,0.00
2010,06,08,01,05,0.00
2010,06,08,01,06,0.00
2010,06,08,01,07,0.00
2010,06,08,01,08,0.00
2010,06,08,01,09,0.00
2010,06,08,01,10,0.00
2010,06,08,01,11,0.00
2010,06,08,01,12,0.00
2010,06,08,01,13,0.00
2010,06,08,01,14,0.00
2010,06,08,01,15,0.00
2010,06,08,01,16,0.00
2010,06,08,01,17,0.00
2010,06,08,01,18,0.00
2010,06,08,01,19,0.00
2010,06,08,01,20,0.00
2010,06,08,01,21,0.00
2010,06,08,01,22,0.00
2010,06,08,01,23,0.00
2010,06,08,01,24,0.00
2010,06,08,01,25,0.00
2010,06,08,01,26,0.00
2010,06,08,01,27,0.00
2010,06,08,01,28,0.00
2010,06,08,01,29,0.00
2010,06,08,01,30,0.00
2010,06,08,01,31,0.00
2010,06,08,01,32,0.00
2010,06,08,01,33,0.00
2010,06,08,01,34,0.00
2010,06,08,01,35,0.00
2010,06,08,01,36,0.00
2010,06,08,01,37,0.00
2010,06,08,01,38,0.00
2010,06,08,01,39,0.00
2010,06,08,01,40,0.00
2010,06,08,01,41,0.00
2010,06,08,01,42,0.00
2010,06,08,01,43,0.00
2010,06,08,01,44,0.00
2010,06,08,01,45,0.00
2010,06,08,01,46,0.00
2010,06,08,01,47,0.00
2010,06,08,01,48,0.00
2010,06,08,01,49,0.00
2010,06,08,01,50,0.00
2010,06,08,01,51,0.00
2010,06,08,01,52,0.00
2010,06,08,01,53,0.00
2010,06,08,01,54,0.00
2010,06,08,01,55,0.00
2010,06,08,01,56,0.00
2010,06,08,01,57,0.00
2010,06,08,01,58,0.00
2010,06,08,01,59,0.00
2010,06,08,02,00,0.00
2010,06,08,02,01,0.00
2010,06,08,02,02,0.00
2010,06,08,02,03,0.00
2010,06,08,02,04,0.00
2010,06,08,02,05,0.00
2010,06,08,02,06,0.00
2010,06,08,02,07,0.00
2010,06,08,02,08,0.00
2010,06,08,02,09,0.00
2010,06,08,02,10,0.00
2010,06,08,02,11,0.00
2010,06,08,02,12,0.00
2010,06,08,02,13,0.00
2010,06,08,02,14,0.00
2010,06,08,02,15,0.00
2010,06,08,02,16,0.00
2010,06,08,02,17,0.00
2010,06,08,02,18,0.00
2010,06,08,02,19,0.00
2010,06,08,02,20,0.00
2010,06,08,02,21,0.00
2010,06,08,02,22,0.00
2010,06,08,02,23,0.00
2010,06,08,02,24,0.00
2010,06,08,02,25,0.00
2010,06,08,02,26,0.00
2010,06,08,02,27,0.00
2010,06,08,02,28,0.00
2010,06,08,02,29,0.00
2010,06,08,02,30,0.00
2010,06,08,02,31,0.00
2010,06,08,02,32,0.00
2010,06,08,02,33,0.00
2010,06,08,02,34,0.00
2010,06,08,02,35,0.00
2010,06,08,02,36,0.00
2010,06,08,02,37,0.00
2010,06,08,02,38,0.00
2010,06,08,02,39,0.00
2010,06,08,02,40,0.00
2010,06,08,02,41,0.00
2010,06,08,02,42,0.00
2010,06,08,02,43,0.00
2010,06,08,02,44,0.00
2010,06,08,02,45,0.00
2010,06,08,02,46,0.00
2010,06,08,02,47,0.00
2010,06,08,02,48,0.00
2010,06,08,02,49,0.00
2010,06,08,02,50,0.00
2010,06,08,02,51,0.00
2010,06,08,02,52,0.00
2010,06,08,02,53,0.00
2010,06,08,02,54,0.00
2010,06,08,02,55,0.00
2010,06,08,02,56,0.00
2010,06,08,02,57,0.00
2010,06,08,02,58,0.00
2010,06,08,02,59,0.00
2010,06,08,03,00,0.00
2010,06,08,03,01,0.00
2010,06,08,03,02,0.00
2010,06,08,03,03,0.00
2010,06,08,03,04,0.00
2010,06,08,03,05,0.00
2010,06,08,03,06,0.00
2010,06,08,03,07,0.00
2010,06,08,03,08,0.00
2010,06,08,03,09,0.00
2010,06,08,03,10,0.00
2010,06,08,03,11,0.00
2010,06,08,03,12,0.00
2010,06,08,03,13,0.00
2010,06,08,03,14,0.00
2010,06,08,03,15,0.00
2010,06,08,03,16,0.00
2010,06,08,03,17,0.00
2010,06,08,03,18,0.00
2010,06,08,03,19,0.00
2010,06,08,03,20,0.00
2010,06,08,03,21,0.00
2010,06,08,03,22,0.00
2010,06,08,03,23,0.00
2010,06,08,03,24,0.00
2010,06,08,03,25,0.00
2010,06,08,03,26,0.00
2010,06,08,03,27,0.00
2010,06,08,03,28,0.00
2010,06,08,03,29,0.00
2010,06,08,03,30,0.00
2010,06,08,03,31,0.00
2010,06,08,03,32,0.00
2010,06,08,03,33,0.00
2010,06,08,03,34,0.00
2010,06,08,03,35,0.00
2010,06,08,03,36,0.00
2010,06,08,03,37,0.00
2010,06,08,03,38,0.00
2010,06,08,03,39,0.00
2010,06,08,03,40,0.00
2010,06,08,03,41,0.00
2010,06,08,03,42,0.00
2010,06,08,03,43,0.00
2010,06,08,03,44,0.00
2010,06,08,03,45,0.00
2010,06,08,03,46,0.00
2010,06,08,03,47,0.00
2010,06,08,03,48,0.00
2010,06,08,03,49,0.00
2010,06,08,03,50,0.00
2010,06,08,03,51,0.00
2010,06,08,03,52,0.00
2010,06,08,03,53,0.00
2010,06,08,03,54,0.00
2010,06,08,03,55,0.00
2010,06,08,03,56,0.00
2010,06,08,03,57,0.00
2010,06,08,03,58,0.00
2010,06,08,03,59,0.00
2010,06,08,04,00,0.00
2010,06,08,04,01,0.00
2010,06,08,04,02,0.00
2010,06,08,04,03,0.00
2010,06,08,04,04,0.00
2010,06,08,04,05,0.00
2010,06,08,04,06,0.00
2010,06,08,04,07,0.00
2010,06,08,04,08,0.00
2010,06,08,04,09,0.00
2010,06,08,04,10,0.00
2010,06,08,04,11,0.00
2010,06,08,04,12,0.00
2010,06,08,04,13,0.00
2010,06,08,04,14,0.00
2010,06,08,04,15,0.00
2010,06,08,04,16,0.00
2010,06,08,04,17,0.00
2010,06,08,04,18,0.00
2010,06,08,04,19,0.00
2010,06,08,04,20,0.00
2010,06,08,04,21,0.00
2010,06,08,04,22,0.00
2010,06,08,04,23,0.00
2010,06,08,04,24,0.00
2010,06,08,04,25,0.00
2010,06,08,04,26,0.00
2010,06,08,04,27,0.00
2010,06,08,04,28,0.00
2010,06,08,04,29,0.00
2010,06,08,04,30,0.00
2010,06,08,04,31,0.00
2010,06,08,04,32,0.00
2010,06,08,04,33,0.00
2010,06,08,04,34,0.00
2010,06,08,04,35,0.00
2010,06,08,04,36,0.00
2010,06,08,04,37,0.00
2010,06,08,04,38,0.00
2010,06,08,04,39,0.00
2010,06,08,04,40,0.00
2010,06,08,04,41,0.00
2010,06,08,04,42,0.00
2010,06,08,04,43,0.00
2010,06,08,04,44,0.00
2010,06,08,04,45,0.00
2010,06,08,04,46,0.00
2010,06,08,04,47,0.00
2010,06,08,04,48,0.00
2010,06,08,04,49,0.00
2010,06,08,04,50,0.00
2010,06,08,04,51,0.00
2010,06,08,04,52,0.00
2010,06,08,04,53,0.00
2010,06,08,04,54,0.00
2010,06,08,04,55,0.00
2010,06,08,04,56,0.00
2010,06,08,04,57,0.00
2010,06,08,04,58,0.00
2010,06,08,04,59,0.00
2010,06,08,05,00,0.00
2010,06,08,05,01,0.00
2010,06,08,05,02,0.00
2010,06,08,05,03,0.00
2010,06,08,05,04,0.00
2010,06,08,05,05,0.00
2010,06,08,05,06,0.00
2010,06,08,05,07,0.00
2010,06,08,05,08,0.00
2010,06,08,05,09,0.00
2010,06,08,05,10,0.00
2010,06,08,05,11,0.00
2010,06,08,05,12,5.00
2010,06,08,05,13,5.00
2010,06,08,05,14,5.00
2010,06,08,05,15,5.00
2010,06,08,05,16,5.00
2010,06,08,05,17,5.00
2010,06,08,05,18,6.30
2010,06,08,05,19,7.00
2010,06,08,05,20,7.00
2010,06,08,05,21,7.00
2010,06,08,05,22,7.40
2010,06,08,05,23,9.00
2010,06,08,05,24,9.00
2010,06,08,05,25,10.10
2010,06,08,05,26,11.00
2010,06,08,05,27,11.00
2010,06,08,05,28,11.00
2010,06,08,05,29,12.00
2010,06,08,05,30,12.00
2010,06,08,05,31,12.00
2010,06,08,05,32,12.00
2010,06,08,05,33,12.90
2010,06,08,05,34,14.00
2010,06,08,05,35,14.00
2010,06,08,05,36,15.50
2010,06,08,05,37,16.00
2010,06,08,05,38,18.00
2010,06,08,05,39,18.00
2010,06,08,05,40,18.00
2010,06,08,05,41,19.20
2010,06,08,05,42,21.00
2010,06,08,05,43,22.30
2010,06,08,05,44,24.40
2010,06,08,05,45,25.00
2010,06,08,05,46,25.90
2010,06,08,05,47,28.20
2010,06,08,05,48,30.40
2010,06,08,05,49,32.30
2010,06,08,05,50,33.90
2010,06,08,05,51,36.20
2010,06,08,05,52,38.30
2010,06,08,05,53,39.70
2010,06,08,05,54,41.80
2010,06,08,05,55,44.10
2010,06,08,05,56,46.50
2010,06,08,05,57,49.50
2010,06,08,05,58,51.80
2010,06,08,05,59,53.50
2010,06,08,06,00,56.40
2010,06,08,06,01,59.40
2010,06,08,06,02,61.70
2010,06,08,06,03,62.00
2010,06,08,06,04,67.10
2010,06,08,06,05,69.20
2010,06,08,06,06,70.60
2010,06,08,06,07,72.80
2010,06,08,06,08,75.50
2010,06,08,06,09,78.10
2010,06,08,06,10,80.50
2010,06,08,06,11,82.80
2010,06,08,06,12,84.10
2010,06,08,06,13,86.20
2010,06,08,06,14,88.50
2010,06,08,06,15,90.30
2010,06,08,06,16,91.90
2010,06,08,06,17,94.20
2010,06,08,06,18,93.80
2010,06,08,06,19,94.60
2010,06,08,06,20,96.80
2010,06,08,06,21,95.00
2010,06,08,06,22,95.30
2010,06,08,06,23,97.80
2010,06,08,06,24,101.40
2010,06,08,06,25,104.00
2010,06,08,06,26,91.20
2010,06,08,06,27,75.10
2010,06,08,06,28,68.20
2010,06,08,06,29,65.10
2010,06,08,06,30,65.80
2010,06,08,06,31,72.40
2010,06,08,06,32,76.30
2010,06,08,06,33,83.40
2010,06,08,06,34,88.30
2010,06,08,06,35,90.00
2010,06,08,06,36,80.40
2010,06,08,06,37,86.80
2010,06,08,06,38,90.00
2010,06,08,06,39,90.20
2010,06,08,06,40,92.50
2010,06,08,06,41,101.40
2010,06,08,06,42,108.00
2010,06,08,06,43,105.20
2010,06,08,06,44,105.90
2010,06,08,06,45,107.00
2010,06,08,06,46,104.20
2010,06,08,06,47,89.60
2010,06,08,06,48,67.40
2010,06,08,06,49,90.60
2010,06,08,06,50,107.40
2010,06,08,06,51,110.50
2010,06,08,06,52,137.70
2010,06,08,06,53,151.60
2010,06,08,06,54,154.60
2010,06,08,06,55,151.80
2010,06,08,06,56,163.40
2010,06,08,06,57,171.20
2010,06,08,06,58,186.60
2010,06,08,06,59,188.00
2010,06,08,07,00,190.90
2010,06,08,07,01,194.30
2010,06,08,07,02,197.80
2010,06,08,07,03,199.90
2010,06,08,07,04,204.10
2010,06,08,07,05,206.20
2010,06,08,07,06,208.10
2010,06,08,07,07,211.70
2010,06,08,07,08,213.50
2010,06,08,07,09,216.20
2010,06,08,07,10,219.50
2010,06,08,07,11,220.00
2010,06,08,07,12,222.80
2010,06,08,07,13,225.20
2010,06,08,07,14,227.40
2010,06,08,07,15,229.40
2010,06,08,07,16,231.90
2010,06,08,07,17,235.10
2010,06,08,07,18,236.70
2010,06,08,07,19,238.40
2010,06,08,07,20,240.70
2010,06,08,07,21,243.00
2010,06,08,07,22,244.20
2010,06,08,07,23,246.40
2010,06,08,07,24,249.00
2010,06,08,07,25,251.90
2010,06,08,07,26,255.30
2010,06,08,07,27,257.70
2010,06,08,07,28,259.50
2010,06,08,07,29,261.80
2010,06,08,07,30,265.10
2010,06,08,07,31,267.40
2010,06,08,07,32,269.60
2010,06,08,07,33,271.40
2010,06,08,07,34,272.00
2010,06,08,07,35,275.60
2010,06,08,07,36,278.70
2010,06,08,07,37,282.60
2010,06,08,07,38,284.90
2010,06,08,07,39,287.10
2010,06,08,07,40,289.10
2010,06,08,07,41,292.60
2010,06,08,07,42,294.50
2010,06,08,07,43,296.10
2010,06,08,07,44,299.40
2010,06,08,07,45,301.80
2010,06,08,07,46,303.80
2010,06,08,07,47,292.90
2010,06,08,07,48,309.00
2010,06,08,07,49,310.00
2010,06,08,07,50,314.00
2010,06,08,07,51,317.00
2010,06,08,07,52,319.30
2010,06,08,07,53,322.20
2010,06,08,07,54,324.50
2010,06,08,07,55,326.90
2010,06,08,07,56,330.20
2010,06,08,07,57,332.40
2010,06,08,07,58,335.30
2010,06,08,07,59,338.00
2010,06,08,08,00,339.60
2010,06,08,08,01,343.70
2010,06,08,08,02,345.80
2010,06,08,08,03,349.20
2010,06,08,08,04,352.10
2010,06,08,08,05,353.60
2010,06,08,08,06,357.50
2010,06,08,08,07,360.10
2010,06,08,08,08,362.90
2010,06,08,08,09,365.70
2010,06,08,08,10,368.40
2010,06,08,08,11,370.70
2010,06,08,08,12,373.80
2010,06,08,08,13,376.40
2010,06,08,08,14,380.20
2010,06,08,08,15,381.60
2010,06,08,08,16,384.50
2010,06,08,08,17,387.50
2010,06,08,08,18,390.40
2010,06,08,08,19,393.50
2010,06,08,08,20,394.00
2010,06,08,08,21,398.90
2010,06,08,08,22,403.50
2010,06,08,08,23,406.40
2010,06,08,08,24,408.70
2010,06,08,08,25,410.00
2010,06,08,08,26,414.10
2010,06,08,08,27,419.00
2010,06,08,08,28,421.40
2010,06,08,08,29,423.80
2010,06,08,08,30,427.20
2010,06,08,08,31,431.60
2010,06,08,08,32,434.50
2010,06,08,08,33,437.20
2010,06,08,08,34,441.70
2010,06,08,08,35,446.90
2010,06,08,08,36,450.90
2010,06,08,08,37,454.50
2010,06,08,08,38,460.70
2010,06,08,08,39,462.00
2010,06,08,08,40,463.90
2010,06,08,08,41,471.00
2010,06,08,08,42,471.00
2010,06,08,08,43,473.80
2010,06,08,08,44,478.70
2010,06,08,08,45,482.10
2010,06,08,08,46,484.70
2010,06,08,08,47,487.20
2010,06,08,08,48,490.30
2010,06,08,08,49,492.40
2010,06,08,08,50,495.00
2010,06,08,08,51,495.60
2010,06,08,08,52,495.70
2010,06,08,08,53,500.90
2010,06,08,08,54,503.80
2010,06,08,08,55,507.80
2010,06,08,08,56,512.10
2010,06,08,08,57,513.40
2010,06,08,08,58,516.30
2010,06,08,08,59,519.40
2010,06,08,09,00,522.20
2010,06,08,09,01,525.20
2010,06,08,09,02,526.70
2010,06,08,09,03,530.20
2010,06,08,09,04,533.70
2010,06,08,09,05,536.40
2010,06,08,09,06,540.30
2010,06,08,09,07,542.50
2010,06,08,09,08,542.60
2010,06,08,09,09,540.00
2010,06,08,09,10,540.70
2010,06,08,09,11,541.00
2010,06,08,09,12,549.00
2010,06,08,09,13,545.40
2010,06,08,09,14,549.30
2010,06,08,09,15,554.90
2010,06,08,09,16,559.20
2010,06,08,09,17,564.50
2010,06,08,09,18,567.20
2010,06,08,09,19,571.20
2010,06,08,09,20,577.20
2010,06,08,09,21,573.30
2010,06,08,09,22,574.50
2010,06,08,09,23,571.70
2010,06,08,09,24,574.40
2010,06,08,09,25,574.80
2010,06,08,09,26,577.00
2010,06,08,09,27,577.60
2010,06,08,09,28,585.70
2010,06,08,09,29,589.00
2010,06,08,09,30,587.00
2010,06,08,09,31,601.00
2010,06,08,09,32,587.00
2010,06,08,09,33,595.90
2010,06,08,09,34,595.70
2010,06,08,09,35,602.40
2010,06,08,09,36,606.40
2010,06,08,09,37,614.00
2010,06,08,09,38,612.50
2010,06,08,09,39,613.30
2010,06,08,09,40,620.80
2010,06,08,09,41,628.00
2010,06,08,09,42,630.90
2010,06,08,09,43,635.60
2010,06,08,09,44,638.40
2010,06,08,09,45,642.20
2010,06,08,09,46,646.30
2010,06,08,09,47,649.80
2010,06,08,09,48,652.20
2010,06,08,09,49,653.60
2010,06,08,09,50,650.30
2010,06,08,09,51,647.00
2010,06,08,09,52,655.40
2010,06,08,09,53,663.70
2010,06,08,09,54,666.80
2010,06,08,09,55,669.80
2010,06,08,09,56,670.60
2010,06,08,09,57,663.00
2010,06,08,09,58,663.00
2010,06,08,09,59,667.70
2010,06,08,10,00,666.50
2010,06,08,10,01,656.60
2010,06,08,10,02,663.60
2010,06,08,10,03,657.70
2010,06,08,10,04,675.50
2010,06,08,10,05,680.10
2010,06,08,10,06,682.00
2010,06,08,10,07,681.10
2010,06,08,10,08,683.20
2010,06,08,10,09,684.00
2010,06,08,10,10,673.90
2010,06,08,10,11,672.10
2010,06,08,10,12,674.70
2010,06,08,10,13,682.00
2010,06,08,10,14,671.90
2010,06,08,10,15,689.50
2010,06,08,10,16,689.50
2010,06,08,10,17,687.00
2010,06,08,10,18,690.00
2010,06,08,10,19,696.20
2010,06,08,10,20,705.80
2010,06,08,10,21,705.40
2010,06,08,10,22,704.30
2010,06,08,10,23,716.20
2010,06,08,10,24,722.00
2010,06,08,10,25,727.50
2010,06,08,10,26,736.10
2010,06,08,10,27,741.30
2010,06,08,10,28,747.60
2010,06,08,10,29,747.30
2010,06,08,10,30,755.50
2010,06,08,10,31,759.00
2010,06,08,10,32,759.40
2010,06,08,10,33,762.50
2010,06,08,10,34,766.40
2010,06,08,10,35,769.20
2010,06,08,10,36,772.00
2010,06,08,10,37,773.00
2010,06,08,10,38,772.10
2010,06,08,10,39,765.10
2010,06,08,10,40,769.30
2010,06,08,10,41,786.80
2010,06,08,10,42,787.90
2010,06,08,10,43,783.20
2010,06,08,10,44,764.80
2010,06,08,10,45,742.00
2010,06,08,10,46,747.00
2010,06,08,10,47,755.00
2010,06,08,10,48,773.60
2010,06,08,10,49,778.60
2010,06,08,10,50,776.40
2010,06,08,10,51,778.90
2010,06,08,10,52,784.00
2010,06,08,10,53,782.70
2010,06,08,10,54,770.90
2010,06,08,10,55,780.50
2010,06,08,10,56,784.00
2010,06,08,10,57,807.50
2010,06,08,10,58,812.80
2010,06,08,10,59,813.50
2010,06,08,11,00,804.60
2010,06,08,11,01,796.90
2010,06,08,11,02,796.00
2010,06,08,11,03,810.20
2010,06,08,11,04,744.10
2010,06,08,11,05,724.00
2010,06,08,11,06,771.00
2010,06,08,11,07,756.70
2010,06,08,11,08,783.50
2010,06,08,11,09,806.20
2010,06,08,11,10,800.50
2010,06,08,11,11,788.40
2010,06,08,11,12,786.00
2010,06,08,11,13,753.90
2010,06,08,11,14,765.10
2010,06,08,11,15,773.60
2010,06,08,11,16,809.20
2010,06,08,11,17,834.40
2010,06,08,11,18,846.40
2010,06,08,11,19,849.00
2010,06,08,11,20,847.50
2010,06,08,11,21,838.80
2010,06,08,11,22,828.00
2010,06,08,11,23,812.20
2010,06,08,11,24,803.40
2010,06,08,11,25,802.80
2010,06,08,11,26,790.30
2010,06,08,11,27,781.60
2010,06,08,11,28,801.30
2010,06,08,11,29,815.40
2010,06,08,11,30,816.00
2010,06,08,11,31,843.90
2010,06,08,11,32,841.20
2010,06,08,11,33,842.10
2010,06,08,11,34,858.60
2010,06,08,11,35,868.00
2010,06,08,11,36,863.60
2010,06,08,11,37,857.30
2010,06,08,11,38,860.40
2010,06,08,11,39,862.60
2010,06,08,11,40,858.00
2010,06,08,11,41,862.70
2010,06,08,11,42,875.30
2010,06,08,11,43,864.80
2010,06,08,11,44,862.80
2010,06,08,11,45,850.00
2010,06,08,11,46,843.60
2010,06,08,11,47,844.00
2010,06,08,11,48,846.30
2010,06,08,11,49,809.70
2010,06,08,11,50,858.80
2010,06,08,11,51,872.80
2010,06,08,11,52,890.00
2010,06,08,11,53,891.00
2010,06,08,11,54,887.40
2010,06,08,11,55,882.00
2010,06,08,11,56,881.00
2010,06,08,11,57,893.00
2010,06,08,11,58,892.50
2010,06,08,11,59,892.80
2010,06,08,12,00,891.60
2010,06,08,12,01,887.10
2010,06,08,12,02,878.40
2010,06,08,12,03,872.00
2010,06,08,12,04,888.90
2010,06,08,12,05,880.20
2010,06,08,12,06,865.30
2010,06,08,12,07,866.50
2010,06,08,12,08,857.60
2010,06,08,12,09,852.80
2010,06,08,12,10,863.40
2010,06,08,12,11,865.00
2010,06,08,12,12,895.80
2010,06,08,12,13,900.40
2010,06,08,12,14,903.10
2010,06,08,12,15,912.40
2010,06,08,12,16,913.20
2010,06,08,12,17,913.90
2010,06,08,12,18,920.60
2010,06,08,12,19,926.00
2010,06,08,12,20,928.00
2010,06,08,12,21,932.20
2010,06,08,12,22,938.40
2010,06,08,12,23,940.30
2010,06,08,12,24,947.50
2010,06,08,12,25,948.00
2010,06,08,12,26,946.00
2010,06,08,12,27,937.90
2010,06,08,12,28,932.00
2010,06,08,12,29,921.20
2010,06,08,12,30,905.60
2010,06,08,12,31,951.10
2010,06,08,12,32,945.20
2010,06,08,12,33,887.70
2010,06,08,12,34,814.00
2010,06,08,12,35,770.40
2010,06,08,12,36,722.00
2010,06,08,12,37,722.00
2010,06,08,12,38,752.30
2010,06,08,12,39,716.60
2010,06,08,12,40,706.40
2010,06,08,12,41,653.80
2010,06,08,12,42,720.50
2010,06,08,12,43,713.30
2010,06,08,12,44,648.60
2010,06,08,12,45,629.70
2010,06,08,12,46,658.10
2010,06,08,12,47,607.00
2010,06,08,12,48,634.10
2010,06,08,12,49,566.60
2010,06,08,12,50,574.20
2010,06,08,12,51,599.90
2010,06,08,12,52,626.50
2010,06,08,12,53,659.70
2010,06,08,12,54,698.90
2010,06,08,12,55,683.30
2010,06,08,12,56,708.30
2010,06,08,12,57,693.00
2010,06,08,12,58,692.00
2010,06,08,12,59,722.00
2010,06,08,13,00,800.70
2010,06,08,13,01,924.50
2010,06,08,13,02,914.80
2010,06,08,13,03,887.70
2010,06,08,13,04,829.30
2010,06,08,13,05,793.60
2010,06,08,13,06,753.60
2010,06,08,13,07,794.10
2010,06,08,13,08,777.40
2010,06,08,13,09,819.60
2010,06,08,13,10,796.20
2010,06,08,13,11,814.10
2010,06,08,13,12,809.70
2010,06,08,13,13,735.90
2010,06,08,13,14,723.80
2010,06,08,13,15,650.30
2010,06,08,13,16,633.20
2010,06,08,13,17,620.20
2010,06,08,13,18,679.50
2010,06,08,13,19,735.60
2010,06,08,13,20,742.00
2010,06,08,13,21,587.90
2010,06,08,13,22,572.20
2010,06,08,13,23,585.00
2010,06,08,13,24,664.80
2010,06,08,13,25,723.10
2010,06,08,13,26,759.40
2010,06,08,13,27,802.00
2010,06,08,13,28,702.40
2010,06,08,13,29,636.00
2010,06,08,13,30,831.60
2010,06,08,13,31,837.80
2010,06,08,13,32,819.80
2010,06,08,13,33,822.40
2010,06,08,13,34,765.30
2010,06,08,13,35,759.60
2010,06,08,13,36,748.40
2010,06,08,13,37,737.70
2010,06,08,13,38,766.30
2010,06,08,13,39,791.80
2010,06,08,13,40,821.50
2010,06,08,13,41,824.50
2010,06,08,13,42,834.40
2010,06,08,13,43,844.00
2010,06,08,13,44,859.00
2010,06,08,13,45,874.00
2010,06,08,13,46,898.30
2010,06,08,13,47,886.20
2010,06,08,13,48,865.80
2010,06,08,13,49,813.90
2010,06,08,13,50,801.30
2010,06,08,13,51,809.70
2010,06,08,13,52,844.00
2010,06,08,13,53,788.20
2010,06,08,13,54,757.80
2010,06,08,13,55,782.80
2010,06,08,13,56,805.80
2010,06,08,13,57,851.40
2010,06,08,13,58,855.50
2010,06,08,13,59,853.80
2010,06,08,14,00,811.30
2010,06,08,14,01,781.50
2010,06,08,14,02,783.00
2010,06,08,14,03,765.90
2010,06,08,14,04,729.40
2010,06,08,14,05,736.30
2010,06,08,14,06,746.20
2010,06,08,14,07,821.90
2010,06,08,14,08,796.30
2010,06,08,14,09,776.20
2010,06,08,14,10,800.10
2010,06,08,14,11,757.30
2010,06,08,14,12,711.90
2010,06,08,14,13,659.00
2010,06,08,14,14,607.30
2010,06,08,14,15,630.70
2010,06,08,14,16,624.80
2010,06,08,14,17,631.20
2010,06,08,14,18,625.80
2010,06,08,14,19,561.20
2010,06,08,14,20,525.90
2010,06,08,14,21,508.20
2010,06,08,14,22,496.50
2010,06,08,14,23,497.40
2010,06,08,14,24,503.70
2010,06,08,14,25,531.70
2010,06,08,14,26,565.20
2010,06,08,14,27,574.50
2010,06,08,14,28,609.70
2010,06,08,14,29,636.10
2010,06,08,14,30,657.50
2010,06,08,14,31,656.40
2010,06,08,14,32,734.70
2010,06,08,14,33,743.50
2010,06,08,14,34,713.30
2010,06,08,14,35,664.00
2010,06,08,14,36,662.30
2010,06,08,14,37,661.00
2010,06,08,14,38,661.00
2010,06,08,14,39,850.30
2010,06,08,14,40,839.90
2010,06,08,14,41,806.80
2010,06,08,14,42,824.20
2010,06,08,14,43,864.10
2010,06,08,14,44,892.10
2010,06,08,14,45,859.50
2010,06,08,14,46,862.10
2010,06,08,14,47,850.80
2010,06,08,14,48,802.90
2010,06,08,14,49,766.40
2010,06,08,14,50,762.30
2010,06,08,14,51,736.30
2010,06,08,14,52,765.00
2010,06,08,14,53,812.90
2010,06,08,14,54,846.10
2010,06,08,14,55,840.00
2010,06,08,14,56,807.10
2010,06,08,14,57,750.80
2010,06,08,14,58,687.30
2010,06,08,14,59,645.40
2010,06,08,15,00,624.80
2010,06,08,15,01,649.50
2010,06,08,15,02,678.20
2010,06,08,15,03,715.30
2010,06,08,15,04,761.80
2010,06,08,15,05,828.10
2010,06,08,15,06,855.10
2010,06,08,15,07,835.60
2010,06,08,15,08,791.90
2010,06,08,15,09,785.50
2010,06,08,15,10,776.90
2010,06,08,15,11,790.80
2010,06,08,15,12,793.40
2010,06,08,15,13,749.20
2010,06,08,15,14,689.10
2010,06,08,15,15,639.00
2010,06,08,15,16,607.00
2010,06,08,15,17,592.50
2010,06,08,15,18,615.00
2010,06,08,15,19,606.50
2010,06,08,15,20,610.80
2010,06,08,15,21,591.30
2010,06,08,15,22,529.80
2010,06,08,15,23,544.40
2010,06,08,15,24,532.50
2010,06,08,15,25,505.90
2010,06,08,15,26,448.80
2010,06,08,15,27,446.00
2010,06,08,15,28,431.20
2010,06,08,15,29,429.70
2010,06,08,15,30,429.60
2010,06,08,15,31,429.00
2010,06,08,15,32,432.30
2010,06,08,15,33,420.70
2010,06,08,15,34,429.70
2010,06,08,15,35,427.00
2010,06,08,15,36,437.50
2010,06,08,15,37,446.00
2010,06,08,15,38,434.90
2010,06,08,15,39,440.10
2010,06,08,15,40,439.30
2010,06,08,15,41,447.20
2010,06,08,15,42,464.00
2010,06,08,15,43,479.50
2010,06,08,15,44,476.20
2010,06,08,15,45,464.60
2010,06,08,15,46,456.90
2010,06,08,15,47,449.50
2010,06,08,15,48,445.30
2010,06,08,15,49,457.50
2010,06,08,15,50,466.00
2010,06,08,15,51,466.90
2010,06,08,15,52,470.70
2010,06,08,15,53,470.40
2010,06,08,15,54,472.90
2010,06,08,15,55,492.90
2010,06,08,15,56,503.20
2010,06,08,15,57,532.80
2010,06,08,15,58,533.50
2010,06,08,15,59,521.60
2010,06,08,16,00,537.70
2010,06,08,16,01,557.80
2010,06,08,16,02,543.00
2010,06,08,16,03,534.70
2010,06,08,16,04,528.00
2010,06,08,16,05,511.70
2010,06,08,16,06,514.10
2010,06,08,16,07,460.70
2010,06,08,16,08,436.90
2010,06,08,16,09,418.90
2010,06,08,16,10,420.80
2010,06,08,16,11,425.00
2010,06,08,16,12,401.00
2010,06,08,16,13,381.60
2010,06,08,16,14,367.70
2010,06,08,16,15,365.90
2010,06,08,16,16,348.00
2010,06,08,16,17,346.60
2010,06,08,16,18,343.00
2010,06,08,16,19,343.00
2010,06,08,16,20,344.30
2010,06,08,16,21,342.20
2010,06,08,16,22,339.30
2010,06,08,16,23,341.00
2010,06,08,16,24,345.00
2010,06,08,16,25,346.70
2010,06,08,16,26,352.10
2010,06,08,16,27,348.20
2010,06,08,16,28,345.40
2010,06,08,16,29,343.70
2010,06,08,16,30,340.00
2010,06,08,16,31,336.30
2010,06,08,16,32,338.90
2010,06,08,16,33,337.10
2010,06,08,16,34,325.70
2010,06,08,16,35,320.10
2010,06,08,16,36,313.40
2010,06,08,16,37,309.70
2010,06,08,16,38,306.80
2010,06,08,16,39,306.00
2010,06,08,16,40,308.30
2010,06,08,16,41,317.40
2010,06,08,16,42,336.90
2010,06,08,16,43,371.60
2010,06,08,16,44,406.50
2010,06,08,16,45,420.10
2010,06,08,16,46,370.30
2010,06,08,16,47,330.10
2010,06,08,16,48,315.80
2010,06,08,16,49,309.10
2010,06,08,16,50,305.70
2010,06,08,16,51,308.00
2010,06,08,16,52,319.30
2010,06,08,16,53,330.50
2010,06,08,16,54,343.00
2010,06,08,16,55,346.20
2010,06,08,16,56,325.50
2010,06,08,16,57,300.00
2010,06,08,16,58,294.80
2010,06,08,16,59,292.00
2010,06,08,17,00,296.00
2010,06,08,17,01,303.20
2010,06,08,17,02,302.00
2010,06,08,17,03,312.10
2010,06,08,17,04,306.90
2010,06,08,17,05,295.70
2010,06,08,17,06,292.20
2010,06,08,17,07,284.10
2010,06,08,17,08,278.20
2010,06,08,17,09,274.20